Retour au catalogue

KUIPER-00098

ActifCommunicationsLEO
NORAD 65137·PAYLOAD·🇺🇸 United States

Lancé Aug 11, 2025 depuis Cape Canaveral Space Force Station

Loading…

Prochains Passages (prochaines 24 heures)

TLE

FraisSource: CelesTrak SupGP

Époque: Sep 14, 2026, 17:03 UTC

1 65137C 25171F   26257.71105324  .00004581  00000+0  59970-3 0  2570
2 65137  51.9008  47.2418 0000779 102.0900  20.7760 14.79924180    16

Suivez KUIPER-00098 en temps réel avec AllMySat

Download on the App Store